[[{"header":{"parameterUnit":"m.s-1","parameterCategory":1,"la1":30.2991,"la2":30.254,"lo1":-89.0895,"lo2":-89.0444,"dx":0.0017,"dy":0.0017,"nx":28,"ny":28,"refTime":"2022-11-12T09:00:00:Z","depth":0,"parameterNumber":2,"parameterNumberName":"U-component_of_WINDS"},"data":[0,0,0,0,0,0,0,0,0,0,0,0,0,0,0,0,0,0,0,0,0,0,0,0,0,0,0,0,0,0,0,0,0,0,0,0,0,0,0,0,0,0,0,0,0,0,0,0,0,0,0,0,0,0,0,0,0,0,-1.8775,-1.8775,0,-1.8839,-1.884,-1.8841,-1.8801,-1.8799,-1.8797,-1.8795,-1.8862,-1.8865,-1.8869,0,0,0,0,0,0,0,0,0,0,0,0,0,-1.8616,-1.8619,-1.8775,-1.8775,-1.8776,-1.8839,-1.884,-1.8841,-1.8801,-1.8799,-1.8796,-1.8794,-1.886,-1.8865,-1.8869,0,0,0,0,0,0,0,0,0,0,0,0,0,-1.8683,-1.862,-1.8774,-1.8764,-1.8763,-1.8839,-1.884,-1.8841,-1.8801,-1.8798,-1.8796,-1.8793,-1.8859,-1.8864,-1.8869,-1.8959,0,0,-1.8886,-1.8888,0,0,0,0,0,0,0,0,-1.8679,-1.8689,-1.8765,-1.8765,-1.8764,-1.8809,-1.8808,-1.8881,-1.8802,-1.8787,-1.8795,-1.8792,-1.8846,-1.8853,-1.8871,-1.8962,-1.8965,-1.8886,-1.8889,-1.8892,-1.8893,0,0,0,0,0,0,0,-1.8675,-1.8686,-1.88,-1.8766,-1.8766,-1.8756,-1.8762,-1.8822,-1.8832,-1.8788,-1.8785,-1.8793,-1.8846,-1.8866,-1.8872,-1.8966,-1.8886,-1.8891,-1.8894,-1.8896,-1.9132,-1.9135,0,0,0,0,0,0,-1.8671,-1.8682,-1.8798,-1.8802,-1.8714,-1.8761,-1.8768,-1.8797,-1.8831,-1.8833,-1.8796,-1.8791,-1.8858,-1.8866,-1.8874,-1.8981,-1.8892,-1.8897,-1.89,-1.9129,-1.9133,-1.9136,0,0,0,0,0,0,-1.8668,-1.8682,-1.8795,-1.8742,-1.8755,-1.8766,-1.88,-1.88,-1.882,-1.8837,-1.8838,-1.8815,-1.8856,-1.8867,-1.8938,-1.8983,-1.8899,-1.8904,-1.9126,-1.9131,-1.9135,-1.9195,0,0,0,0,0,0,-1.8663,-1.8681,-1.8715,-1.8743,-1.8758,-1.8858,-1.8803,-1.8804,-1.883,-1.8824,-1.8855,-1.8857,-1.8855,-1.893,-1.8943,-1.8988,-1.8908,-1.9122,-1.9128,-1.9133,-1.9189,-1.9201,-1.9211,0,0,0,0,0,-1.8658,-1.873,-1.8717,-1.8731,-1.8802,-1.8861,-1.887,-1.8866,-1.8833,-1.8868,-1.8878,-1.8856,-1.8975,-1.8938,-1.8952,-1.9,-1.9119,-1.9126,-1.9133,-1.9184,-1.9199,-1.9211,0,0,0,0,0,0,-1.8708,-1.8733,-1.872,-1.8803,-1.883,-1.8854,-1.8898,-1.8881,-1.8919,-1.8912,-1.8905,-1.8912,-1.8987,-1.9,-1.8958,-1.9087,-1.9042,-1.9052,-1.9076,-1.909,-1.9101,-1.9096,-1.8912,0,0,0,0,0,-1.8729,-1.8775,-1.8795,-1.8866,-1.888,-1.8887,-1.8913,-1.8907,-1.8935,-1.8946,-1.8962,-1.899,-1.9033,-1.9062,-1.9103,-1.919,-1.9196,-1.923,-1.9241,-1.925,-1.9259,-1.9305,-1.932,-1.9159,-1.9159,-1.9159,0,0,-1.8772,-1.8792,-1.8822,-1.8877,-1.8897,-1.8945,-1.8897,-1.895,-1.8985,-1.8954,-1.9022,-1.9034,-1.9065,-1.9144,-1.918,-1.9158,-1.9305,-1.9259,-1.9266,-1.927,-1.9314,-1.9329,-1.9343,-1.9164,-1.9163,-1.9162,0,0,-1.8876,-1.8896,-1.8957,-1.8978,-1.9009,-1.9013,-1.9027,-1.9054,-1.9061,-1.9128,-1.9106,-1.9148,-1.9223,-1.9246,-1.9267,-1.9377,-1.9358,-1.9391,-1.9449,-1.9494,-1.9507,-1.9518,-1.9557,-1.9571,-1.94,-1.94,-1.94,0,-1.8926,-1.8997,-1.899,-1.9045,-1.9069,-1.9043,-1.9104,-1.9125,-1.9168,-1.9186,-1.916,-1.9253,-1.9272,-1.9356,-1.9383,-1.9401,-1.9417,-1.9388,-1.9506,-1.9517,-1.9527,-1.9564,-1.9579,-1.9403,-1.9403,-1.9403,-1.9402,0,-1.9057,-1.9107,-1.9153,-1.9194,-1.9224,-1.9282,-1.9283,-1.9314,-1.9305,-1.9311,-1.938,-1.9401,-1.9445,-1.9465,-1.9457,-1.9547,-1.9532,-1.9506,-1.9461,-1.9546,-1.9581,-1.9595,-1.9409,-1.9407,-1.9406,-1.9405,0,0,-1.9196,-1.9232,-1.9249,-1.9267,-1.9299,-1.9337,-1.9393,-1.9436,-1.9462,-1.9492,-1.9539,-1.9602,-1.9578,-1.9602,-1.9597,-1.9636,-1.9721,-1.9605,-1.9606,-1.9626,-1.9821,-1.9841,-1.9857,-1.9708,-1.9711,-1.9713,-1.9818,0,-1.9301,-1.9399,-1.9394,-1.9485,-1.9531,-1.9505,-1.9554,-1.9578,-1.9585,-1.9624,-1.9631,-1.9676,-1.9641,-1.9656,-1.9693,-1.9703,-1.976,-1.9695,-1.9752,-1.9754,-1.9745,-1.9875,-1.9896,-1.9995,-1.9832,-1.9834,-1.9836,0,-1.9438,-1.9472,-1.9568,-1.9592,-1.9611,-1.9655,-1.9693,-1.9731,-1.9757,-1.9759,-1.9786,-1.9773,-1.9829,-1.9781,-1.9858,-1.9814,-1.9836,-1.9844,-1.9848,-1.9853,-1.98,-1.9884,-2.0026,-2.0041,-1.9857,-1.9856,-1.9854,0,-1.9529,-1.9599,-1.9665,-1.9681,-1.9711,-1.9742,-1.9756,-1.978,-1.9806,-1.9839,-1.9856,-1.9895,-1.9917,-1.9948,-1.9946,-1.9911,-2.0023,-1.9976,-2.0026,-2.0026,-2.0052,-2.005,-2.0199,-2.0066,-2.0066,-2.0065,-2.0065,0,-1.9647,-1.9707,-1.9706,-1.9747,-1.9813,-1.9806,-1.9871,-1.9881,-1.9902,-1.9945,-1.9925,-1.9965,-1.9959,-1.9999,-1.9998,-2.0061,-2.0071,-2.0074,-2.0073,-2.0076,-2.0076,-2.0091,-2.0084,-2.0069,-2.0068,-2.0068,-2.0067,0,-1.9761,-1.9763,-1.9833,-1.9855,-1.9862,-1.9909,-1.9927,-1.9966,-1.997,-2.0023,-2.0035,-2.0043,-2.0088,-2.0089,-2.0141,-2.014,-2.0218,-2.0209,-2.0209,-2.0207,-2.0257,-2.0253,-2.0422,-2.0443,-2.0296,-2.0297,-2.0299,0,-1.9836,-1.9882,-1.9908,-1.9934,-1.995,-1.9993,-2.0019,-2.0013,-2.0041,-2.0074,-2.0108,-2.0152,-2.0186,-2.026,-2.027,-2.031,-2.0302,-2.0358,-2.0308,-2.0309,-2.0302,-2.03,-2.0304,-2.0368,-2.037,-2.0371,-2.0372,0,-1.997,-1.9969,-2.0007,-2.0045,-2.0076,-2.0106,-2.0134,-2.0157,-2.0154,-2.0186,-2.0232,-2.0259,-2.0312,-2.0355,-2.0393,-2.0407,-2.0389,-2.0388,-2.0402,-2.0405,-2.0403,-2.0405,-2.0236,-2.0384,-2.0383,-2.0382,-2.0381,-2.0381,-2.0067,-2.0106,-2.013,-2.0173,-2.0192,-2.0218,-2.0255,-2.0264,-2.0302,-2.0344,-2.0338,-2.039,-2.0414,-2.0463,-2.048,-2.052,-2.05,-2.052,-2.0525,-2.053,-2.0536,-2.0397,-2.0527,-2.0526,-2.0526,-2.0526,-2.0525,0,-2.02,-2.0214,-2.0253,-2.0292,-2.0325,-2.0305,-2.0334,-2.0363,-2.0409,-2.0433,-2.0467,-2.0519,-2.0561,-2.0573,-2.0613,-2.0643,-2.0635,-2.0653,-2.0651,-2.0655,-2.0551,-2.0535,-2.0658,-2.0658,-2.0658,-2.0658,-2.0658,-2.0658,-2.0273,-2.0337,-2.0338,-2.0411,-2.0424,-2.0474,-2.0493,-2.0516,-2.0535,-2.0595,-2.0629,-2.0636,-2.0655,-2.0696,-2.0733,-2.0736,-2.0751,-2.0773,-2.0772,-2.0675,-2.0662,-2.0649,-2.0634,-2.0776,-2.0776,-2.0872,-2.0873,-2.0874]},{"header":{"parameterUnit":"m.s-1","parameterCategory":1,"la1":30.2991,"la2":30.254,"lo1":-89.0895,"lo2":-89.0444,"dx":0.0017,"dy":0.0017,"nx":28,"ny":28,"refTime":"2022-11-12T09:00:00:Z","depth":0,"parameterNumber":3,"parameterNumberName":"V-component_of_WINDS"},"data":[0,0,0,0,0,0,0,0,0,0,0,0,0,0,0,0,0,0,0,0,0,0,0,0,0,0,0,0,0,0,0,0,0,0,0,0,0,0,0,0,0,0,0,0,0,0,0,0,0,0,0,0,0,0,0,0,0,0,-6.2597,-6.2598,0,-6.2701,-6.2702,-6.2703,-6.2627,-6.2623,-6.262,-6.2617,-6.2717,-6.2723,-6.2729,0,0,0,0,0,0,0,0,0,0,0,0,0,-6.2326,-6.2331,-6.2597,-6.2598,-6.26,-6.2701,-6.2702,-6.2704,-6.2627,-6.2623,-6.2619,-6.2615,-6.2715,-6.2722,-6.2729,0,0,0,0,0,0,0,0,0,0,0,0,0,-6.2438,-6.2333,-6.2597,-6.2574,-6.2573,-6.2701,-6.2702,-6.2704,-6.2628,-6.2623,-6.2618,-6.2614,-6.2713,-6.2722,-6.273,-6.2884,0,0,-6.2757,-6.276,0,0,0,0,0,0,0,0,-6.2432,-6.2448,-6.2576,-6.2576,-6.2575,-6.2646,-6.2643,-6.2764,-6.263,-6.2607,-6.2617,-6.2611,-6.2697,-6.2707,-6.2737,-6.2889,-6.2893,-6.2757,-6.2763,-6.2766,-6.2769,0,0,0,0,0,0,0,-6.2424,-6.2443,-6.2638,-6.2578,-6.2577,-6.2556,-6.2567,-6.2666,-6.2679,-6.2609,-6.2603,-6.2617,-6.2696,-6.2729,-6.2739,-6.2894,-6.2757,-6.2765,-6.277,-6.2774,-6.3175,-6.318,0,0,0,0,0,0,-6.2419,-6.2437,-6.2635,-6.2641,-6.249,-6.2565,-6.2577,-6.2628,-6.2678,-6.268,-6.2621,-6.2613,-6.2717,-6.2729,-6.2742,-6.2924,-6.2766,-6.2774,-6.2779,-6.3169,-6.3176,-6.3182,0,0,0,0,0,0,-6.2414,-6.2438,-6.263,-6.2538,-6.2561,-6.2575,-6.2633,-6.2633,-6.2666,-6.2687,-6.2688,-6.2653,-6.2713,-6.273,-6.2849,-6.2926,-6.2778,-6.2786,-6.3163,-6.3171,-6.3179,-6.329,0,0,0,0,0,0,-6.2406,-6.2436,-6.2497,-6.254,-6.2566,-6.2738,-6.2638,-6.2638,-6.2682,-6.2672,-6.2717,-6.272,-6.2711,-6.2837,-6.2858,-6.2936,-6.2793,-6.3156,-6.3167,-6.3176,-6.3279,-6.3301,-6.3319,0,0,0,0,0,-6.2397,-6.2523,-6.25,-6.2524,-6.2642,-6.2743,-6.2758,-6.2746,-6.2688,-6.2748,-6.2761,-6.2719,-6.2915,-6.285,-6.2873,-6.2954,-6.3151,-6.3164,-6.3176,-6.327,-6.3297,-6.3319,0,0,0,0,0,0,-6.2486,-6.2528,-6.2503,-6.2647,-6.2692,-6.273,-6.2805,-6.2774,-6.2835,-6.2823,-6.2804,-6.2815,-6.294,-6.2959,-6.2885,-6.3105,-6.3023,-6.3041,-6.3088,-6.3113,-6.3132,-6.3124,-6.28,0,0,0,0,0,-6.2523,-6.2604,-6.2635,-6.2759,-6.2783,-6.279,-6.2834,-6.2821,-6.2866,-6.2884,-6.2906,-6.2949,-6.302,-6.3068,-6.3135,-6.3282,-6.3289,-6.3349,-6.3369,-6.3385,-6.34,-6.3477,-6.3504,-6.3222,-6.3222,-6.3222,0,0,-6.2599,-6.2632,-6.2684,-6.2778,-6.2811,-6.2892,-6.2807,-6.2897,-6.2956,-6.2897,-6.3011,-6.3029,-6.3076,-6.3209,-6.3269,-6.3229,-6.348,-6.3401,-6.3414,-6.342,-6.3493,-6.3519,-6.3543,-6.323,-6.3229,-6.3228,0,0,-6.2779,-6.2813,-6.2919,-6.2955,-6.3007,-6.3011,-6.3037,-6.3079,-6.3089,-6.3204,-6.316,-6.323,-6.3353,-6.3388,-6.3422,-6.3615,-6.3577,-6.3637,-6.374,-6.3816,-6.3838,-6.3857,-6.3924,-6.3949,-6.3652,-6.3652,-6.3652,0,-6.2866,-6.299,-6.2977,-6.3071,-6.3112,-6.3064,-6.317,-6.3204,-6.3275,-6.3304,-6.3258,-6.3412,-6.344,-6.358,-6.3627,-6.3657,-6.3683,-6.3631,-6.3836,-6.3856,-6.3874,-6.3937,-6.3962,-6.3659,-6.3658,-6.3658,-6.3657,0,-6.3093,-6.3179,-6.3258,-6.333,-6.338,-6.3479,-6.348,-6.3532,-6.3514,-6.3522,-6.3638,-6.3671,-6.3743,-6.3775,-6.3759,-6.3913,-6.3886,-6.3839,-6.3757,-6.3908,-6.3966,-6.3991,-6.3669,-6.3666,-6.3664,-6.3663,0,0,-6.3332,-6.3395,-6.3424,-6.3455,-6.3509,-6.3574,-6.367,-6.3742,-6.3786,-6.3836,-6.3915,-6.402,-6.3977,-6.4016,-6.4002,-6.4069,-6.4217,-6.4013,-6.4014,-6.4048,-6.4386,-6.442,-6.4448,-6.4193,-6.4197,-6.4201,-6.4381,0,-6.3513,-6.3683,-6.3674,-6.3832,-6.3909,-6.3865,-6.3948,-6.3988,-6.3998,-6.4064,-6.4074,-6.4148,-6.4087,-6.4109,-6.4173,-6.4185,-6.4284,-6.4172,-6.4263,-6.4266,-6.4251,-6.4479,-6.4516,-6.4684,-6.4404,-6.4408,-6.4411,0,-6.3748,-6.3807,-6.3974,-6.4015,-6.4047,-6.4122,-6.4186,-6.4251,-6.4295,-6.4297,-6.4341,-6.4316,-6.441,-6.4327,-6.4455,-6.438,-6.4416,-6.4427,-6.4433,-6.444,-6.4347,-6.449,-6.4738,-6.4762,-6.4448,-6.4445,-6.4442,0,-6.3903,-6.4024,-6.4139,-6.4167,-6.4219,-6.4272,-6.4296,-6.4335,-6.4379,-6.4434,-6.4462,-6.4527,-6.4563,-6.4613,-6.4606,-6.4546,-6.4735,-6.4652,-6.4738,-6.4738,-6.4778,-6.4775,-6.5033,-6.4805,-6.4805,-6.4804,-6.4804,0,-6.4105,-6.4208,-6.4209,-6.428,-6.4393,-6.4381,-6.4492,-6.4509,-6.4545,-6.4616,-6.4581,-6.4648,-6.4635,-6.4701,-6.4696,-6.4802,-6.4818,-6.4821,-6.4818,-6.4823,-6.4823,-6.4845,-6.4833,-6.4811,-6.4809,-6.4808,-6.4807,0,-6.4297,-6.4302,-6.4424,-6.4463,-6.4475,-6.4557,-6.4588,-6.4654,-6.4661,-6.4751,-6.4771,-6.4782,-6.4858,-6.4856,-6.4942,-6.4938,-6.5067,-6.5052,-6.5053,-6.5049,-6.5134,-6.5126,-6.5414,-6.5451,-6.5201,-6.5203,-6.5205,0,-6.4425,-6.4503,-6.4551,-6.4597,-6.4624,-6.4699,-6.4743,-6.4733,-6.4781,-6.4837,-6.4895,-6.4968,-6.5026,-6.5148,-6.5162,-6.5227,-6.5212,-6.5308,-6.5221,-6.5223,-6.5211,-6.5205,-6.5212,-6.5325,-6.5328,-6.533,-6.5332,0,-6.4651,-6.4649,-6.4716,-6.4784,-6.4838,-6.489,-6.4938,-6.4977,-6.4973,-6.5027,-6.5105,-6.515,-6.5239,-6.5311,-6.5373,-6.5394,-6.5362,-6.536,-6.5382,-6.5388,-6.5384,-6.5385,-6.5098,-6.5352,-6.535,-6.5349,-6.5348,-6.5347,-6.4813,-6.488,-6.4924,-6.4998,-6.5034,-6.5079,-6.5142,-6.5158,-6.5224,-6.5296,-6.5286,-6.5373,-6.5413,-6.5494,-6.5521,-6.5587,-6.5552,-6.5586,-6.5594,-6.5602,-6.561,-6.5376,-6.5598,-6.5597,-6.5597,-6.5596,-6.5596,0,-6.5035,-6.5061,-6.5131,-6.52,-6.5258,-6.5225,-6.5276,-6.5326,-6.5403,-6.5445,-6.5503,-6.5591,-6.5661,-6.5681,-6.5747,-6.5796,-6.5782,-6.5813,-6.5809,-6.5814,-6.5639,-6.5611,-6.5823,-6.5823,-6.5823,-6.5823,-6.5823,-6.5823,-6.5158,-6.5269,-6.5273,-6.54,-6.5424,-6.551,-6.5542,-6.5583,-6.5616,-6.5717,-6.5776,-6.5789,-6.582,-6.5889,-6.595,-6.5954,-6.5979,-6.6016,-6.6013,-6.5849,-6.5826,-6.5804,-6.5778,-6.6022,-6.6022,-6.6182,-6.6184,-6.6185]}]]